User: anonymous   Login
Location: Ostrava
(49.8330°N, 18.2830°E)
Time: 02:20:46
(UTC+02:00)
Language:

Vanguard 2 Rocket - Orbit

View from above orbital plane
View from above orbital plane
View from above satellite
View from above satellite

Ground track
Ground track

The orbit data is extracted from the following two-line orbital elements,

1 00012U 59001B   15243.75615549  .00000710  00000-0  39965-3 0  9998
2 00012  32.9112 358.1273 1668644 228.8642 115.5648 11.43818162321875
Epoch (UTC): 31 August 2015 18:08:51
Eccentricity: 0.1668644
inclination: 32.9112°
perigee height: 554 km
apogee height: 3331 km
right ascension of ascending node: 358.1273°
argument of perigee: 228.8642°
revolutions per day: 11.43818162
mean anomaly at epoch: 115.5648°
orbit number at epoch: 32187

The dashed part of the orbit path shows where the satellite is in the earth's shadow,  

DLR